Location: Bh?mavarapp?du
(16.7041°N, 80.6518°E)
Time: 07:57:39
(UTC+00:00)

Cosmos 2034 Rocket - Pass Details

Date: 21 April 2021
Orbit: 959 x 999 km, 82.9° (Epoch: 06 May)

Event Time Altitude Azimuth Distance (km) Brightness Sun altitude
Rises 13:33:28 0° 186° (S) 3,631 6.9 -9.9°
Reaches altitude 10° 13:35:57 10° 188° (S) 2,689 6.2 -10.5°
Maximum altitude 13:42:06 78° 274° (W) 988 4.2 -11.9°
Drops below altitude 10° 13:48:20 10° 0° (N) 2,717 6.5 -13.3°
Sets 13:50:51 0° 2° (N) 3,671 7.2 -13.9°
